STARLINK-31910, 59664

Orbit data source: Space-Track

STARLINK-31910, 59664 is a payload satellite owned by SpaceX/Seattle (US) in LEO that was launched on Mon, 06 May 2024 UTC via an FALCON 9 launch vehicle from the Air Force Eastern Test Range (AFETR). Payload-class satellites include a variety of spacecraft equipped with specific instruments for various scientific and technological missions. These include communications satellites like Starlink; space stations such as the ISS; scientific satellites like the Hubble; Earth observation satellites from companies like Planet Labs, Umbra, and HawkEye 360; GPS; miniature CubeSats for education and research; and military/defense satellites.

Loading next visibility...
Identifier
59664, 2024-084L
Orbit
LEO
Last TLE update
15 hours ago
Origin
Manufacturer
SpaceX/Seattle
Mission
Operational spacecraft
Bus & Motor
STARLINK V2M, Unknown motor
Mass
730 kg wet, ~700 kg dry
Launch date (UTC)
2024-05-06 (1 year ago)
Launch vehicle
FALCON 9
Launch site
Air Force Eastern Test Range (AFETR)
Object type
Payload
Rocket body
Debris
Shape & HBR
Unknown
Radar Cross Section
Large (>1 m²)

Expand to show TLE details & history

TLE from 15 hours ago
0 STARLINK-31910
1 59664U 24084L   25186.51544649 -.00000419  00000-0 -57010-5 0  9992
2 59664  43.0025 357.4794 0000833 298.5626  61.5142 15.27574788 66574
Epoch: 2025-07-05T12:22Z
TLE epoch observation values (Epoch: 2025-07-05T12:22:14.576Z)
Latitude
-0.00002°
Longitude
-111.83373°
Altitude
482.568 km
Speed
7.626 km/s
True Right ascension
23h 49m 55s
True Declination
0° 00' 00"
Sunlit
Object was in daylight at epoch
Visualization orbit readout
Latitude
36.07919°
Longitude
13.7308°
Altitude
485.303 km
Speed
7.628 km/s
Apparent Right ascension
05h 46m 51s
Apparent Declination
0° 21' 06"
Sunlit
Object is in daylight
Visualization observer readout
Local Sidereal Time
14:58:07
Azimuth
305.03° NW
Elevation
-34.907°
Doppler factor
1
Orbital elements
Apogee altitude
485.581 km
Perigee altitude
484.438 km
Semi-major axis
6,863.146 km
Eccentricity
0.00008
Inclination
43.0025°
RAAN
357.4794°
Arg. of periapsis
298.5626°
True anomaly
Unknown
Mean anomaly
61.5142°
Eccentric anomaly
Unknown
Mean motion
3.81732 °/min
Orbital period
94.31 mins
BSTAR
-0.000005701
Loading maneuver chart data...
Loading SW <> Apogee altitude chart data...
Loading historical data...
Loading historical data...
Loading historical data...
Loading historical data...
Loading historical data...
Loading historical data...
Loading historical data...

STARLINK-31910 Visibility forecast

Observer location: undefined°, undefined°

Span
Click to sort rows by Start time (UTC) header in descending order
Start Az.
Max El. time (UTC)
Max El. Az.
Max El.
End time (UTC)
End Az.
4 mins2025-07-06 13:40:10.621Z172.244° S2025-07-06 13:42:10.621Z134.39° SE15.881°2025-07-06 13:44:10.621Z102.131° ESE
5 mins2025-07-06 15:18:10.621Z238.835° WSW2025-07-06 15:20:10.621Z175.107° S43.622°2025-07-06 15:23:10.621Z75.134° E
5 mins2025-07-06 16:57:10.621Z285.818° WNW2025-07-06 16:59:10.621Z343.659° N38.351°2025-07-06 17:02:10.621Z70.08° E
6 mins2025-07-06 18:36:10.621Z292.928° NW2025-07-06 18:38:10.621Z330.968° NNW41.727°2025-07-06 18:42:10.621Z97.888° ESE
5 mins2025-07-06 20:15:10.621Z266.057° W2025-07-06 20:17:10.621Z217.639° SW29.67°2025-07-06 20:20:10.621Z147.931° SSE
|